Kezdőlap
METAR-TAF:

METAR-TAF

Repülőterek :

Iowa City Municipal Airport

Iowa City, Iowa, Amerikai Egyesült Államok

földrajzi szélesség: 41-37-58N, földrajzi hosszúság: 091-32-35W, magasság: 203 m

Jelenlegi meteorológiai megfigyelések

A jelentés 49 perccel ezelõtt készült, 04:52 UTC
Déli szél 8 kt
Hőmérséklet 19°C
Páratartalom 52%
Légköri nyomás 1007 hPa
Látótávolság: 16.1 km
Derült ég

METAR: KIOW 140452Z AUTO 18008KT 10SM CLR 19/09 A2975 RMK AO2 SLP069 T01940094

Idő: 00:41 (05:41 UTC)


TAF: hiányzik

Meteorológiai megfigyelések és előrejelzések több, mint 4000 repülőtéren (METAR és TAF jelentéseket).

A térképen piros és sárga pontok jelzik az elérhető meteorológiai állomásokat.

Mozgassa az egeret a pont fölött, hogy megjelenjen az állomás neve.

Azután kattintson az időjárási megfigyelések és előrejelzések megtekintéséhez.

A térkép megváltoztatása: kattintson a fekete keresztel jelölt zöld gombra ráközelítéshez, a vonallal jelölt zöld gombra távolításhoz, vagy a zöld nyilakra a szomszédos térképek eléréséhez.


METAR-TAF: